This demonstration page uses our WeatherBlox Daily Observations layout. Learn more.

38.89511, -77.03637

Hourly Observations for January 11, 2018

Temp ( °F °C ) Dew Point ( °F °C ) Humidity (%) Winds ( mph kmh ) Pressure ( in mb ) Visibility ( mi km ) Precip ( " mm )
12:52 am 00:52 Cloudy 40 4.4 33 0.6 77 77 Calm 30.38 1029 10 16.0934 0 0
1:52 am 01:52 Cloudy 41 5 33 0.6 73 73 Calm 30.37 1029 10 16.0934 0 0
1:59 am 01:59 Cloudy 40 4.4 33 0.6 77 77 Calm 30.39 1029 10 16.0934 0 0
2:52 am 02:52 Cloudy 40 4.4 33 0.6 77 77 Calm 30.37 1029 10 16.0934 0 0
3:52 am 03:52 Cloudy 40 4.4 33 0.6 77 77 Calm 30.36 1028 10 16.0934 0 0
4:52 am 04:52 Cloudy 41 5 33 0.6 73 73 Calm 30.35 1028 10 16.0934 0 0
5:52 am 05:52 Cloudy 39 3.9 33 0.6 79 79 Calm 30.36 1028 10 16.0934 0 0
6:52 am 06:52 Cloudy 40 4.4 33 0.6 77 77 Calm 30.37 1029 10 16.0934 0 0
7:10 am 07:10 Cloudy 42 5.6 34 1.1 73 73 Calm 30.39 1029 10 16.0934 0 0
7:29 am 07:29 Cloudy 39 3.9 33 0.6 79 79 Calm 30.39 1029 10 16.0934 0 0
7:48 am 07:48 Cloudy 41 5 34 1 76 76 SE 3 6 30.39 1029 9 14.48406 0 0
7:52 am 07:52 Cloudy 41 5 34 1.1 76 76 SE 3 6 30.38 1029 9 14.48406 0 0
8:37 am 08:37 Cloudy 43 6.1 34 1.1 71 71 SSE 3 6 30.39 1029 9 14.48406 0 0
8:52 am 08:52 Cloudy 43 6.1 34 1.1 71 71 SSE 5 7 30.39 1029 9 14.48406 0 0
9:52 am 09:52 Mostly Cloudy 46 7.8 36 2.2 68 68 Calm 30.4 1029 9 14.48406 0 0
10:28 am 10:28 Mostly Cloudy 48 8.9 37 2.8 66 66 Calm 30.39 1029 9 14.48406 0 0
10:41 am 10:41 Mostly Cloudy 48 8.9 37 2.8 66 66 Calm 30.39 1029 9 14.48406 0 0
10:52 am 10:52 Mostly Cloudy 48 8.9 37 2.8 66 66 Calm 30.39 1029 9 14.48406 0 0
11:24 am 11:24 Cloudy 49 9.4 38 3.3 66 66 S 3 6 30.36 1028 10 16.0934 0 0
11:39 am 11:39 Cloudy 50 10 38 3.3 63 63 S 3 6 30.36 1028 10 16.0934 0 0
11:52 am 11:52 Cloudy 50 10 39 3.9 66 66 S 5 7 30.35 1028 10 16.0934 0 0
12:52 pm 12:52 Cloudy 55 12.8 43 6.1 64 64 S 5 7 30.31 1026 10 16.0934 0 0
1:52 pm 13:52 Cloudy 59 15 47 8.3 64 64 S 5 7 30.27 1025 10 16.0934 0 0
2:52 pm 14:52 Cloudy 62 16.7 49 9.4 62 62 S 6 9 30.25 1025 10 16.0934 0 0
3:52 pm 15:52 Mostly Cloudy 59 15 50 10 72 72 S 6 9 30.24 1024 10 16.0934 0 0
4:52 pm 16:52 Cloudy 58 14.4 49 9.4 72 72 SSE 8 13 30.23 1024 10 16.0934 0 0
5:52 pm 17:52 Cloudy 58 14.4 51 10.6 78 78 S 8 13 30.22 1023 10 16.0934 0 0
6:52 pm 18:52 Cloudy 58 14.4 52 11.1 81 81 S 10 17 30.21 1023 10 16.0934 0 0
7:52 pm 19:52 Cloudy 57 13.9 53 11.7 87 87 S 10 17 30.19 1022 10 16.0934 0 0
8:05 pm 20:05 Cloudy 57 13.9 54 12.2 90 90 S 8 13 30.18 1022 10 16.0934 0 0
8:52 pm 20:52 Cloudy 57 13.9 55 12.8 93 93 SSE 8 13 30.16 1022 10 16.0934 0 0
8:59 pm 20:59 Cloudy 56 13.3 54 12.2 93 93 SSE 7 11 30.15 1021 10 16.0934 0 0
9:17 pm 21:17 Cloudy 57 13.9 56 13.3 96 96 SSE 6 9 30.15 1021 9 14.48406 0 0.0254
9:45 pm 21:45 Cloudy 59 15 57 13.9 93 93 S 8 13 30.15 1021 10 16.0934 0 0.0254
9:52 pm 21:52 Cloudy 58 14.4 56 13.3 93 93 S 10 17 30.14 1021 10 16.0934 0 0.0254
10:52 pm 22:52 Cloudy 57 13.9 55 12.8 93 93 S 9 15 30.11 1020 10 16.0934 0 0
11:52 pm 23:52 Cloudy 57 13.9 55 12.8 93 93 S 9 15 30.09 1019 10 16.0934 0 0

Powered by AerisWeather